Edinburgh Airport, United Kingdom

11:16 PM BST on October 21, 2017 (GMT +0100)
Edinburgh Airport

Weather History for EGPH - September, 2012

Change the Weather History Date:

Thursday, September 6, 2012

  Actual Average Record
Temperature  
Mean Temperature 54 °F -  
Max Temperature 62 °F 60 °F 73 °F (1999)
Min Temperature 46 °F 46 °F 41 °F (2015)
Degree Days  
Heating Degree Days 11    
Growing Degree Days 4 (Base 50)    
Moisture  
Dew Point 51 °F    
Average Humidity 84    
Maximum Humidity 94    
Minimum Humidity 63    
Precipitation  
Precipitation 0.00 in 0.09 in - ()
Sea Level Pressure  
Sea Level Pressure 30.14 in    
Wind  
Wind Speed 12 mph ()    
Max Wind Speed 26 mph    
Max Gust Speed 44 mph    
Visibility 6.0 miles    
Events Rain    
Averages and records for this station are not official NWS values.
T = Trace of Precipitation, MM = Missing Value Source: Averaged Metar Reports

Daily Weather History Graph

Daily Weather History Graph

Search for Another Location

Airport or City:

Trip Planner

Search our weather history database for the weather conditions in past years. The results will help you decide how hot, cold, wet, or windy it might be!

Date:

Astronomy

Sep. 06, 2012 Rise Set
Actual Time 6:28 AM BST 7:53 PM BST
Civil Twilight 5:49 AM BST 8:32 PM BST
Nautical Twilight 5:01 AM BST 9:19 PM BST
Astronomical Twilight 4:07 AM BST 10:12 PM BST
Moon 9:38 PM BST (9/6) 1:28 PM BST (9/6)
Length of Visible Light 14h 42m
Length of Day
13h 25m
Waning Gibbous, 69% of the Moon is Illuminated
Sep 6
Waning Gibbous
Sep 8
Last Quarter
Sep 16
New
Sep 22
First Quarter
Sep 30
Full

Hourly Weather History & Observations

Time (BST) Temp. Windchill Dew Point Humidity Pressure Visibility Wind Dir Wind Speed Gust Speed Precip Events Conditions
12:20 AM 50.0 °F - 44.6 °F 82% 30.36 in - West 4.6 mph - N/A   Clear
12:50 AM 48.2 °F - 44.6 °F 87% 30.36 in - West 5.8 mph - N/A   Clear
1:20 AM 48.2 °F - 44.6 °F 87% 30.36 in - West 4.6 mph - N/A   Clear
1:50 AM 46.4 °F 43.5 °F 44.6 °F 93% 30.33 in - WSW 5.8 mph - N/A   Clear
2:20 AM 48.2 °F - 44.6 °F 87% 30.33 in - WSW 6.9 mph - N/A   Clear
2:50 AM 48.2 °F - 44.6 °F 87% 30.30 in 6.2 mi WSW 9.2 mph - N/A   Unknown
3:20 AM 48.2 °F - 46.4 °F 93% 30.30 in 6.2 mi West 6.9 mph - N/A   Unknown
3:50 AM 48.2 °F - 46.4 °F 93% 30.30 in 6.2 mi WSW 10.4 mph - N/A   Unknown
4:20 AM 48.2 °F - 44.6 °F 87% 30.27 in 6.2 mi WSW 6.9 mph - N/A   Partly Cloudy
4:50 AM 48.2 °F - 46.4 °F 93% 30.27 in 6.2 mi WSW 9.2 mph - N/A   Scattered Clouds
5:20 AM 50.0 °F - 46.4 °F 87% 30.27 in 6.2 mi WSW 10.4 mph - N/A   Scattered Clouds
5:50 AM 50.0 °F - 46.4 °F 87% 30.24 in 6.2 mi WSW 5.8 mph - N/A   Scattered Clouds
6:20 AM 51.8 °F - 44.6 °F 76% 30.21 in 6.2 mi SW 6.9 mph - N/A   Scattered Clouds
6:50 AM 51.8 °F - 46.4 °F 82% 30.21 in - WSW 9.2 mph - N/A   Clear
7:20 AM 51.8 °F - 46.4 °F 82% 30.18 in - WSW 10.4 mph - N/A   Clear
7:50 AM 53.6 °F - 46.4 °F 77% 30.18 in - WSW 12.7 mph - N/A   Clear
8:20 AM 53.6 °F - 48.2 °F 82% 30.18 in - WSW 13.8 mph - N/A   Clear
8:50 AM 55.4 °F - 48.2 °F 77% 30.15 in - SW 16.1 mph - N/A   Clear
9:20 AM 55.4 °F - 50.0 °F 82% 30.15 in - WSW 16.1 mph - N/A   Clear
9:50 AM 57.2 °F - 50.0 °F 77% 30.12 in - SW 19.6 mph - N/A   Clear
10:20 AM 57.2 °F - 50.0 °F 77% 30.12 in 6.2 mi SW 18.4 mph - N/A   Scattered Clouds
10:50 AM 60.8 °F - 50.0 °F 68% 30.09 in 6.2 mi WSW 23.0 mph - N/A   Mostly Cloudy
11:20 AM 60.8 °F - 51.8 °F 72% 30.09 in 6.2 mi WSW 24.2 mph 38.0 mph N/A   Mostly Cloudy
11:50 AM 62.6 °F - 50.0 °F 63% 30.09 in 6.2 mi WSW 26.5 mph 43.7 mph N/A Rain Light Rain
12:20 PM 60.8 °F - 50.0 °F 68% 30.09 in 6.2 mi WSW 21.9 mph 33.4 mph N/A   Mostly Cloudy
12:50 PM 60.8 °F - 50.0 °F 68% 30.06 in 6.2 mi WSW 25.3 mph - N/A   Mostly Cloudy
1:20 PM 59.0 °F - 50.0 °F 72% 30.06 in 6.2 mi WSW 21.9 mph - N/A   Mostly Cloudy
1:50 PM 57.2 °F - 51.8 °F 82% 30.06 in 6.2 mi WSW 21.9 mph - N/A Rain Light Rain
2:20 PM 59.0 °F - 50.0 °F 72% 30.06 in 6.2 mi WSW 23.0 mph - N/A   Mostly Cloudy
2:50 PM 59.0 °F - 51.8 °F 77% 30.06 in 6.2 mi WSW 24.2 mph 35.7 mph N/A   Mostly Cloudy
3:20 PM 59.0 °F - 51.8 °F 77% 30.04 in 6.2 mi WSW 25.3 mph - N/A   Mostly Cloudy
3:50 PM 60.8 °F - 53.6 °F 77% 30.04 in 6.2 mi SW 25.3 mph 41.4 mph N/A   Mostly Cloudy
4:20 PM 59.0 °F - 53.6 °F 82% 30.04 in 6.2 mi WSW 25.3 mph - N/A   Mostly Cloudy
4:50 PM 59.0 °F - 55.4 °F 88% 30.04 in 6.2 mi WSW 25.3 mph - N/A   Mostly Cloudy
5:20 PM 59.0 °F - 55.4 °F 88% 30.04 in 5.0 mi WSW 21.9 mph - N/A   Light Drizzle
5:50 PM 57.2 °F - 55.4 °F 94% 30.04 in 4.3 mi WSW 20.7 mph - N/A Rain Light Rain
6:20 PM 57.2 °F - 55.4 °F 94% 30.04 in 3.7 mi WSW 19.6 mph - N/A Rain Light Rain
6:50 PM 59.0 °F - 57.2 °F 94% 30.04 in 5.0 mi WSW 19.6 mph - N/A Rain Light Rain
7:20 PM 59.0 °F - 57.2 °F 94% 30.04 in 6.2 mi WSW 18.4 mph - N/A Rain Light Rain
7:50 PM 59.0 °F - 57.2 °F 94% 30.04 in 6.2 mi WSW 17.3 mph - N/A Rain Light Rain
8:20 PM 59.0 °F - 57.2 °F 94% 30.06 in 6.2 mi WSW 15.0 mph - N/A Rain Light Rain
8:50 PM 59.0 °F - 57.2 °F 94% 30.06 in 6.2 mi WSW 17.3 mph - N/A Rain Light Rain
9:20 PM 59.0 °F - 57.2 °F 94% 30.06 in 6.2 mi WSW 15.0 mph - N/A Rain Light Rain
9:50 PM 59.0 °F - 57.2 °F 94% 30.06 in 6.2 mi WSW 11.5 mph - N/A   Mostly Cloudy
10:20 PM 59.0 °F - 57.2 °F 94% 30.06 in 5.6 mi WSW 10.4 mph - N/A Rain Light Rain
10:50 PM 59.0 °F - 57.2 °F 94% 30.06 in 6.2 mi WSW 10.4 mph - N/A Rain Light Rain
11:20 PM 59.0 °F - 57.2 °F 94% 30.06 in 6.2 mi WSW 11.5 mph - N/A Rain Light Rain
11:50 PM 59.0 °F - 57.2 °F 94% 30.06 in 6.2 mi SW 11.5 mph - N/A   Mostly Cloudy